Temp_Advection
nan nan nan nan nan nan nan nan nan nan nan nan nan nan nan nan nan nan nan nan nan nan nan nan nan nan nan nan nan nan nan nan nan nan nan nan nan nan nan nan nan nan nan nan nan
nan -0 -1 -0 -0 -0 -0 -0 -0 -0 -0 0 0 0 -0 -0 -1 -1 0 1 0 1 0 0 0 0 -0 -0 -0 -1 -0 -1 -0 0 0 0 0 0 -0 -0 -0 -0 -0 0 nan
nan -0 -0 -0 -0 -1 -0 -0 -0 -1 -1 -0 0 0 0 -1 -0 -0 -0 0 0 0 0 0 0 -0 -0 -0 -0 -0 -1 -0 1 1 0 0 0 0 -0 -1 -0 -0 0 -0 nan
nan -0 -0 -0 -0 -0 -0 -0 -0 -0 -0 -1 -0 0 1 -1 -1 0 0 0 0 0 0 0 -0 -0 -0 -0 -0 0 -1 -0 1 0 -0 0 0 0 -0 -1 0 1 0 0 nan
nan -1 -1 -1 -0 -0 -0 0 0 -0 -0 -0 -0 -0 1 0 -1 -0 0 0 0 0 0 0 -0 -0 -0 0 0 -0 -0 1 0 0 0 0 -1 0 -0 0 1 0 0 1 nan
nan -1 -1 -1 -1 -1 -1 -0 0 0 0 -0 0 0 0 -0 -0 0 0 0 0 0 0 0 0 0 -0 -0 0 -0 -0 -0 -0 -0 0 -0 1 0 -2 0 2 1 0 1 nan
nan -1 -1 -0 -0 -1 -1 -0 0 0 0 0 0 1 -0 -0 0 0 0 0 0 0 0 0 0 0 0 0 0 -0 -0 -0 0 0 1 0 -0 -1 -1 1 1 1 0 0 nan
nan -1 -1 -1 -0 -0 -0 -0 -0 -0 0 0 0 0 -0 0 0 0 0 0 0 0 0 0 0 0 0 0 -0 -0 -0 -0 -0 0 0 -0 -1 1 0 0 0 0 1 1 nan
nan -0 -1 -1 -0 -0 -0 -0 -0 -0 -0 -0 0 0 -0 0 0 0 0 0 0 0 0 0 0 -0 -0 -0 -0 -0 -0 0 0 0 0 -0 -0 0 0 -0 -0 0 1 1 nan
nan 0 -0 -1 -0 -1 -0 0 -0 -0 -0 -0 0 0 0 0 -0 0 0 0 0 0 -0 0 -0 -0 -0 -0 -0 0 0 0 0 -0 0 -0 -1 -1 1 0 -2 0 1 1 nan
nan -0 -0 -0 -0 -1 -1 -1 -1 -0 -0 0 0 -0 -0 -0 -0 -0 0 0 0 -0 -0 -0 -0 -1 -0 0 0 0 0 -0 -0 0 0 -1 -0 -0 0 0 0 -1 1 2 nan
nan -1 -1 -1 -0 -0 -1 -1 -1 -1 -1 -0 -0 -0 0 0 -0 0 0 0 -0 -0 0 -0 -1 0 0 0 0 -0 -0 -1 1 0 -0 -1 -0 -1 -0 1 1 0 -0 -0 nan
nan -2 -1 -1 -0 -0 -1 -1 0 -0 -0 -0 -0 -0 0 -0 -0 0 0 0 -0 0 -0 -0 -0 -0 0 0 -0 -0 -0 0 0 0 0 -1 -1 0 -0 -0 -1 -1 -1 -1 nan
nan -1 -2 -1 -0 -1 -0 0 0 -0 -0 -0 0 -0 0 -0 0 0 0 0 -0 -0 0 0 0 0 -0 -0 0 0 -0 -0 -0 -0 -0 0 -1 -0 0 -1 -1 -1 -1 -1 nan
nan -0 -0 -1 -0 -0 0 0 0 0 -0 -0 -0 0 0 0 -0 0 0 -0 -0 0 0 0 0 0 0 0 0 -0 -0 -0 -0 0 -0 -0 -0 0 0 -0 -1 -0 -0 -0 nan
nan 0 -0 -0 -0 0 0 0 0 -0 0 -0 -0 0 -0 -0 0 0 -0 -0 -0 -0 -0 0 -0 -0 -0 0 -0 0 -0 -0 -0 0 -0 -0 -0 0 -0 -0 -0 -0 -0 -0 nan
nan 1 -0 -0 0 0 0 0 -0 0 -0 -0 -0 -0 -0 -0 0 0 -0 -0 -0 0 0 0 -0 -0 -0 -0 -0 -0 -0 -0 0 -0 0 -0 0 -0 0 0 0 -0 -0 0 nan
nan 1 -0 -0 0 0 -0 -0 0 -0 -0 -0 -0 -0 0 -0 0 -0 0 0 -0 -0 -0 0 0 0 0 -0 -0 0 -0 0 -0 -0 0 -0 -0 0 0 0 0 -0 -0 0 nan
nan -0 0 0 0 -0 -0 -0 -0 -0 -0 -0 -0 -0 0 0 -0 -0 0 0 -0 -0 -0 0 0 -0 -0 -0 -0 0 0 -0 -0 0 -0 -0 -0 -0 -0 0 0 0 0 0 nan
nan -1 -0 -0 0 -0 -0 -0 -0 -0 -0 -0 -0 -0 0 -0 -0 -0 0 -0 0 -0 -0 0 -0 -0 -0 -0 0 -0 0 0 0 -0 -1 0 0 0 0 -0 -0 -0 0 0 nan
nan -0 -0 -0 0 -0 -0 -0 -0 -0 -0 -0 -0 -0 -0 -0 0 -0 0 -0 -0 0 -0 0 0 0 -0 0 -0 0 0 0 -0 -0 -0 -0 0 -0 0 -0 -0 -0 0 0 nan
nan -1 -1 -1 0 -0 -0 -0 -0 -0 -0 -0 -0 0 0 -0 -0 -0 0 -0 0 0 -0 -0 -0 -0 0 -0 -0 -0 -0 -0 -0 0 0 -0 1 -0 0 -0 -0 -0 0 0 nan
nan -1 -1 -1 -0 -0 -1 -0 -0 -0 -0 -0 0 -0 -0 -0 -0 -0 -0 -0 0 -0 -0 0 -0 -0 0 -0 -0 -0 -0 -0 0 -0 -0 -0 0 -0 -0 -0 -1 -0 0 0 nan
nan 0 -0 -0 -0 -0 -0 -0 -0 -0 0 -0 -0 -0 -0 -0 -0 -0 -0 0 -0 -0 -0 0 0 -0 -0 -0 0 0 -0 0 0 -0 -1 -0 -0 -0 -0 -0 0 1 0 0 nan
nan 0 0 -0 0 0 -0 -0 -0 -0 0 0 -0 0 -0 0 -0 -0 -0 -0 -0 -0 0 0 -0 -0 -0 -0 0 0 -0 0 0 0 -0 -1 -0 0 0 0 0 0 -0 -0 nan
nan 0 0 -0 0 -0 -0 -0 -0 -0 0 0 0 -0 0 -0 0 0 -0 -0 0 -0 -0 -0 -0 0 -0 -0 0 0 -0 -0 -0 -0 -0 -0 -0 -0 -0 0 0 -0 -0 -0 nan
nan nan nan nan nan nan nan nan nan nan nan nan nan nan nan nan nan nan nan nan nan nan nan nan nan nan nan nan nan nan nan nan nan nan nan nan nan nan nan nan nan nan nan nan nan
Wind_Speed
20 20 20 20 19 19 19 20 21 21 20 19 18 17 19 19 19 20 25 20 14 16 18 13 14 15 15 12 11 10 7 13 22 13 8 6 7 5 5 6 7 9 6 8 8
24 23 23 22 21 21 21 21 21 22 23 22 21 19 19 20 22 24 23 18 15 16 18 18 16 16 10 11 11 12 10 19 11 12 12 8 9 6 5 7 9 9 18 14 13
28 28 27 27 27 26 24 22 21 22 23 22 22 19 19 19 19 8 2 3 9 12 15 16 12 14 13 10 14 10 17 19 15 10 7 8 6 7 7 11 16 15 19 22 20
30 30 31 30 29 28 27 27 25 24 22 22 22 20 18 12 7 5 6 5 8 13 14 14 13 11 9 12 16 11 19 24 15 8 7 11 7 7 14 28 13 13 13 20 27
32 32 33 33 32 30 29 27 27 26 24 20 19 18 16 7 13 16 10 8 10 14 16 16 15 12 10 7 12 14 16 13 16 18 17 10 16 16 22 23 19 20 15 20 26
31 31 32 32 31 30 29 28 28 26 23 20 18 16 12 9 13 11 9 9 11 13 14 16 10 13 5 7 12 2 7 14 13 20 14 12 18 5 27 17 20 21 23 22 24
35 36 37 37 36 33 28 27 25 25 23 21 14 12 12 11 10 11 11 12 12 12 13 14 15 10 6 7 6 5 10 14 15 16 11 8 10 14 34 15 14 16 18 22 26
36 37 38 39 38 34 30 24 25 26 19 12 5 9 6 6 5 10 11 11 11 11 11 9 12 10 7 2 3 5 5 10 1 4 3 9 14 11 6 11 16 16 16 19 24
38 39 40 40 38 34 30 24 22 13 8 3 3 6 3 1 3 6 9 8 10 9 8 7 8 4 3 7 8 8 12 11 9 6 3 11 6 4 2 5 11 11 14 16 18
38 40 41 41 36 30 26 21 11 6 5 2 1 3 3 1 1 2 5 7 5 9 5 5 5 7 6 9 11 7 8 6 9 3 6 8 16 16 18 13 21 21 17 15 18
40 41 43 42 34 24 20 10 6 3 5 5 4 7 12 12 12 9 8 8 7 6 8 6 9 14 16 15 13 9 10 14 16 6 6 15 18 18 21 19 23 23 19 18 18
41 41 43 38 26 14 12 8 8 8 10 6 4 4 4 5 3 5 8 7 6 9 6 5 13 10 4 7 12 13 13 15 14 4 7 13 18 20 22 19 12 9 8 12 12
41 42 41 32 13 13 14 15 12 9 6 6 3 2 2 2 3 4 7 6 6 8 13 9 2 5 7 6 9 11 14 12 10 4 10 10 15 9 4 12 8 7 7 7 6
40 42 37 25 6 12 9 16 13 6 4 4 2 1 1 2 2 3 6 4 4 7 6 7 2 4 5 6 8 10 3 4 5 4 8 3 9 11 6 6 6 11 11 11 5
40 40 31 18 9 13 15 15 10 3 5 3 2 0 5 2 2 1 3 2 5 5 4 1 3 4 6 2 2 1 1 2 3 7 6 9 5 1 1 3 7 8 11 9 6
40 38 26 13 10 17 16 13 1 1 5 1 2 3 6 1 1 1 1 2 1 2 4 3 2 2 1 1 1 3 3 2 2 3 5 1 9 1 3 2 4 6 8 7 7
40 36 13 12 18 18 16 5 3 3 3 4 3 6 5 3 1 2 2 1 3 4 5 3 1 1 1 3 1 4 3 3 4 3 3 2 5 4 3 2 2 5 5 6 7
40 33 7 12 18 16 14 3 5 2 2 2 4 10 4 4 0 3 2 3 1 3 2 3 4 5 2 2 1 0 3 3 5 6 8 3 6 1 2 4 6 6 4 2 3
37 27 5 14 15 16 5 3 3 2 3 8 10 4 2 2 4 4 2 1 1 4 2 2 3 2 1 1 2 4 3 3 3 3 5 7 2 2 1 2 3 3 1 3 3
40 24 5 19 22 8 2 3 4 4 6 2 3 1 3 1 6 4 2 2 4 0 3 2 5 2 2 2 3 2 5 3 3 5 11 6 5 3 6 4 2 1 1 4 4
29 11 9 18 12 3 2 4 4 3 6 4 4 6 5 6 3 3 3 2 2 1 2 0 4 2 2 4 6 3 3 4 3 4 8 11 4 2 8 5 6 4 5 3 4
20 5 15 20 3 3 3 8 6 5 3 4 4 6 5 2 4 5 5 3 1 0 1 2 0 5 8 2 2 1 2 4 6 4 6 7 9 4 5 6 2 8 9 8 7
18 8 9 15 2 5 9 6 4 4 3 4 3 4 4 3 5 6 3 4 2 1 2 2 1 4 5 3 2 3 4 5 4 4 10 8 4 3 3 5 10 10 6 6 7
9 4 5 8 5 6 7 7 5 5 4 3 4 3 4 3 3 4 5 3 2 2 2 1 5 8 11 12 10 13 15 10 9 7 14 14 16 8 8 10 9 5 4 5 4
2 3 2 4 5 10 4 7 11 8 2 2 2 2 2 3 4 5 3 9 9 7 4 3 7 10 12 15 14 15 16 18 16 16 14 18 18 13 8 11 4 2 2 2 2
5 4 5 8 7 5 4 4 11 12 4 8 6 9 4 5 8 13 13 5 6 2 1 3 5 3 12 13 14 15 17 15 17 18 17 19 20 9 3 3 3 2 3 3 4
16 17 10 7 6 4 6 6 9 11 7 11 9 8 10 12 14 14 16 20 15 8 5 4 3 2 9 7 7 9 13 8 4 6 7 7 4 3 2 1 1 2 4 3 4
Wind_Direction
350 345 340 335 332 327 323 319 316 312 308 308 307 307 309 307 300 291 280 277 260 241 233 212 190 194 192 196 189 189 234 248 252 258 258 170 203 194 221 215 205 208 234 219 206
345 340 333 326 322 320 318 317 315 311 307 304 302 303 306 303 299 290 291 259 254 229 214 206 191 187 189 200 196 203 227 241 250 258 263 253 234 225 197 205 229 236 235 228 204
348 342 335 329 326 320 314 311 307 305 302 303 300 297 303 307 309 276 231 217 220 195 199 204 200 187 207 189 199 210 236 244 254 246 246 249 235 213 223 232 235 221 217 221 209
348 343 338 332 328 324 321 317 311 304 298 299 298 297 296 292 279 251 263 260 210 189 196 193 178 185 217 212 208 234 242 254 258 251 233 240 263 229 230 254 279 247 230 222 215
349 346 339 334 331 328 323 319 314 305 298 295 288 288 287 258 253 272 262 234 201 193 192 191 187 203 222 226 215 238 255 255 256 257 251 250 248 265 251 260 253 252 242 230 221
348 345 339 335 333 328 324 319 314 306 301 292 284 274 238 215 251 250 235 219 211 208 211 204 207 211 248 231 224 340 277 272 270 263 252 244 261 236 258 262 245 244 243 235 230
347 344 340 337 336 332 328 322 314 307 303 297 284 245 234 263 246 230 220 221 223 222 221 217 217 194 191 236 230 264 278 273 255 252 244 225 243 244 259 258 242 241 238 236 233
345 342 338 335 334 331 329 328 319 312 308 297 269 209 248 239 230 225 223 222 217 215 221 222 211 213 226 236 231 253 243 271 129 190 208 198 274 262 314 241 253 247 240 237 234
344 342 337 334 335 331 329 328 322 329 336 337 175 184 252 276 240 229 216 220 215 203 194 189 177 214 177 230 250 217 262 248 282 203 154 214 270 258 260 228 266 254 243 237 230
344 341 335 334 334 330 328 331 319 339 28 38 164 218 231 166 38 151 186 183 173 174 149 176 193 222 211 210 249 256 243 240 252 144 212 227 249 264 259 263 267 264 256 243 234
345 341 337 336 334 331 332 346 344 292 328 260 252 270 274 275 263 250 226 198 186 196 235 199 223 225 236 230 263 263 259 268 267 254 270 264 269 272 270 256 262 270 271 260 249
344 341 339 340 337 341 352 58 34 318 308 307 256 273 270 249 217 209 184 189 194 220 167 190 241 247 209 232 236 241 256 263 271 306 225 269 274 275 272 268 275 299 298 283 262
345 342 340 344 346 353 30 43 6 334 279 286 234 262 290 210 202 184 188 180 200 192 204 230 76 108 185 202 210 228 232 263 271 316 245 285 273 234 91 101 91 27 360 338 275
346 344 344 352 7 6 10 352 346 343 279 164 212 206 305 208 205 203 192 184 208 232 210 248 135 208 207 232 221 265 324 276 264 278 282 337 288 264 196 107 51 17 9 12 45
347 345 345 356 2 359 339 342 338 40 308 49 99 9 331 260 17 149 208 200 243 195 196 102 171 197 226 274 230 13 14 278 247 257 304 215 240 203 135 118 21 8 10 21 53
347 346 340 346 346 345 341 335 349 241 245 85 17 23 340 29 23 326 199 219 282 242 232 276 59 5 50 135 281 148 220 192 166 222 240 354 230 290 60 331 327 6 25 38 64
347 343 341 346 341 341 342 332 266 213 18 17 345 343 325 300 243 325 179 174 268 248 206 183 153 110 265 186 195 216 234 277 228 192 287 126 209 328 321 193 247 318 357 48 86
348 346 353 350 349 343 346 257 234 71 340 359 299 301 243 356 130 316 238 215 59 285 258 240 207 175 144 311 329 175 297 262 282 279 307 131 242 209 337 326 273 281 311 354 87
350 352 346 349 344 338 328 262 313 353 334 323 309 270 189 192 339 312 251 259 84 354 257 245 240 122 52 39 309 139 200 9 285 222 262 247 120 187 125 271 266 280 29 50 48
348 340 335 350 341 349 281 307 327 357 333 278 279 294 284 336 324 309 265 96 152 49 339 97 290 59 93 181 67 319 129 232 202 255 260 238 250 224 190 181 181 108 73 46 357
353 342 330 344 348 21 21 337 309 339 339 299 308 294 287 304 275 263 283 101 53 131 340 139 227 98 233 210 295 230 219 215 287 247 262 276 260 326 145 110 91 300 300 297 333
352 316 332 355 331 33 6 327 323 318 331 300 283 272 281 8 286 258 261 28 130 68 117 67 302 272 284 61 48 0 294 278 249 240 241 272 274 133 117 115 305 298 310 293 302
336 290 352 356 31 8 338 309 286 306 318 317 291 17 12 320 292 260 310 131 162 36 92 151 205 287 249 174 151 212 177 232 246 242 266 288 278 73 170 216 239 279 285 302 300
337 311 336 47 76 5 339 304 315 319 288 303 292 302 334 299 294 322 312 360 302 324 322 177 216 235 263 285 303 290 289 248 274 273 277 265 281 211 204 213 266 239 278 302 307
252 237 234 304 319 322 307 285 299 308 273 287 268 326 325 288 304 276 300 314 285 293 261 236 258 258 262 277 278 269 266 273 268 256 259 275 282 272 270 238 276 163 26 46 1
236 235 208 258 270 236 280 258 290 297 263 285 274 301 219 251 262 294 297 264 267 33 292 233 258 236 275 277 270 267 263 264 263 266 268 265 270 329 62 146 164 92 68 49 39
249 239 226 203 196 219 251 253 267 285 261 269 271 259 253 272 285 268 270 260 256 258 263 248 241 243 275 312 304 269 250 236 205 219 241 258 322 107 87 24 315 47 40 39 23
Height
1536 1533 1529 1526 1522 1519 1515 1512 1509 1506 1503 1500 1498 1496 1494 1491 1488 1486 1482 1483 1483 1484 1486 1488 1490 1492 1495 1497 1498 1499 1497 1487 1477 1477 1473 1478 1478 1479 1479 1481 1481 1480 1479 1478 1477
1532 1528 1524 1520 1517 1514 1511 1508 1505 1502 1499 1497 1495 1493 1490 1487 1484 1480 1477 1476 1477 1479 1482 1484 1487 1489 1492 1492 1494 1493 1486 1475 1471 1472 1473 1475 1477 1477 1479 1478 1478 1477 1476 1477 1478
1530 1525 1520 1515 1512 1509 1505 1501 1498 1496 1494 1492 1490 1488 1486 1484 1481 1473 1472 1472 1473 1475 1478 1481 1485 1488 1488 1488 1487 1485 1476 1471 1473 1476 1475 1474 1475 1475 1474 1471 1468 1469 1471 1472 1475
1528 1523 1517 1512 1507 1503 1499 1496 1493 1489 1487 1486 1485 1483 1481 1483 1480 1471 1470 1470 1471 1473 1476 1479 1482 1484 1483 1481 1480 1479 1474 1473 1472 1473 1473 1471 1472 1471 1471 1462 1465 1467 1467 1467 1468
1525 1519 1514 1508 1503 1498 1495 1490 1486 1482 1480 1479 1478 1478 1477 1479 1475 1472 1470 1469 1469 1470 1471 1475 1479 1479 1478 1476 1477 1476 1470 1472 1471 1470 1469 1470 1467 1468 1462 1461 1462 1462 1463 1463 1464
1522 1516 1510 1504 1499 1494 1490 1485 1480 1477 1474 1472 1472 1472 1472 1471 1465 1468 1469 1470 1471 1471 1471 1471 1472 1474 1474 1473 1473 1472 1472 1470 1469 1467 1467 1466 1462 1467 1450 1456 1457 1456 1457 1459 1460
1518 1512 1505 1497 1492 1488 1485 1481 1474 1471 1468 1466 1465 1466 1466 1466 1462 1462 1463 1466 1468 1468 1469 1469 1471 1472 1471 1469 1470 1469 1468 1464 1462 1461 1462 1463 1461 1457 1445 1451 1452 1452 1453 1454 1455
1515 1509 1502 1495 1490 1484 1479 1475 1470 1465 1461 1460 1461 1464 1463 1461 1459 1461 1462 1463 1464 1465 1466 1467 1468 1470 1469 1468 1467 1466 1466 1458 1451 1458 1459 1460 1446 1445 1445 1447 1448 1448 1448 1448 1449
1513 1505 1498 1492 1486 1480 1476 1471 1466 1462 1460 1459 1460 1461 1461 1460 1460 1459 1460 1462 1463 1463 1464 1465 1467 1467 1468 1465 1462 1460 1448 1448 1452 1454 1456 1457 1444 1442 1444 1445 1444 1444 1444 1444 1445
1511 1504 1496 1489 1483 1477 1472 1468 1464 1462 1459 1459 1460 1464 1459 1458 1459 1460 1460 1460 1462 1464 1465 1465 1465 1461 1462 1459 1448 1448 1452 1452 1450 1452 1455 1452 1447 1442 1441 1443 1438 1437 1439 1441 1440
1509 1501 1493 1486 1479 1474 1470 1466 1468 1465 1460 1459 1459 1457 1457 1456 1456 1455 1459 1460 1460 1463 1460 1463 1459 1448 1445 1449 1446 1449 1450 1447 1443 1445 1450 1441 1438 1435 1432 1434 1432 1431 1433 1434 1436
1506 1498 1489 1483 1477 1473 1471 1470 1475 1476 1466 1457 1456 1454 1453 1453 1455 1454 1454 1459 1459 1456 1459 1460 1451 1443 1450 1452 1453 1450 1447 1443 1439 1446 1449 1437 1430 1426 1423 1424 1429 1432 1434 1433 1433
1504 1496 1488 1482 1477 1476 1473 1474 1475 1474 1471 1458 1453 1455 1455 1455 1452 1453 1455 1453 1453 1453 1453 1444 1445 1448 1449 1449 1450 1446 1442 1437 1441 1444 1443 1442 1420 1418 1426 1426 1431 1433 1432 1430 1429
1503 1495 1487 1482 1480 1476 1475 1474 1473 1473 1463 1454 1457 1454 1453 1452 1453 1451 1452 1454 1453 1449 1451 1446 1446 1447 1448 1446 1446 1441 1448 1450 1449 1445 1432 1441 1418 1407 1409 1423 1431 1434 1433 1430 1428
1500 1493 1487 1480 1481 1479 1478 1474 1472 1471 1456 1458 1454 1456 1454 1454 1453 1452 1453 1452 1448 1447 1452 1440 1446 1447 1446 1447 1450 1444 1452 1450 1449 1444 1445 1432 1437 1406 1417 1421 1433 1437 1436 1433 1431
1498 1490 1484 1482 1478 1477 1474 1472 1471 1466 1453 1454 1456 1453 1455 1453 1451 1451 1452 1452 1451 1450 1449 1446 1451 1451 1450 1454 1453 1453 1450 1451 1451 1446 1442 1431 1429 1408 1424 1438 1438 1439 1437 1435 1433
1496 1488 1482 1481 1479 1475 1473 1472 1464 1455 1457 1458 1457 1456 1457 1453 1449 1450 1448 1449 1447 1443 1440 1445 1449 1453 1454 1451 1452 1450 1442 1428 1429 1441 1418 1441 1438 1418 1435 1440 1441 1440 1438 1436 1435
1494 1487 1483 1482 1478 1474 1472 1471 1460 1456 1459 1462 1459 1456 1451 1454 1451 1451 1446 1444 1454 1451 1444 1440 1436 1449 1452 1449 1445 1447 1442 1431 1429 1417 1415 1448 1423 1422 1440 1442 1442 1440 1438 1438 1436
1493 1487 1483 1481 1477 1473 1474 1466 1456 1464 1468 1466 1456 1452 1449 1454 1454 1450 1447 1447 1454 1455 1445 1442 1442 1451 1453 1453 1453 1448 1443 1453 1446 1448 1443 1415 1429 1436 1439 1440 1440 1439 1438 1437 1437
1491 1484 1483 1481 1476 1473 1473 1467 1471 1474 1473 1469 1460 1456 1451 1454 1456 1453 1447 1454 1454 1457 1454 1454 1448 1450 1454 1454 1455 1451 1453 1451 1450 1442 1424 1404 1420 1412 1436 1439 1441 1440 1439 1438 1437
1492 1485 1482 1479 1475 1474 1472 1475 1476 1474 1475 1473 1465 1460 1457 1458 1460 1457 1451 1456 1456 1457 1456 1455 1454 1449 1452 1448 1442 1448 1448 1452 1453 1444 1426 1416 1411 1433 1433 1438 1442 1441 1440 1439 1437
1495 1492 1481 1479 1478 1480 1478 1482 1481 1476 1475 1473 1469 1465 1462 1464 1461 1457 1450 1454 1459 1457 1454 1459 1461 1451 1446 1455 1457 1456 1453 1452 1440 1436 1432 1425 1419 1434 1438 1441 1443 1442 1441 1440 1437
1499 1493 1485 1481 1480 1485 1485 1482 1480 1477 1476 1472 1470 1469 1468 1466 1465 1459 1456 1460 1460 1459 1458 1459 1457 1451 1441 1453 1457 1455 1457 1454 1453 1451 1438 1435 1422 1440 1441 1442 1441 1440 1439 1439 1437
1501 1495 1489 1487 1490 1492 1490 1482 1478 1478 1476 1477 1474 1471 1469 1466 1465 1463 1462 1461 1461 1459 1459 1459 1456 1452 1447 1440 1443 1448 1445 1446 1447 1447 1430 1425 1420 1428 1434 1435 1434 1437 1437 1436 1436
1500 1495 1494 1489 1487 1491 1491 1486 1482 1478 1477 1476 1472 1471 1473 1473 1471 1465 1463 1462 1460 1458 1458 1457 1453 1447 1447 1445 1446 1446 1442 1440 1441 1438 1439 1426 1425 1424 1430 1434 1435 1436 1436 1435 1435
1496 1493 1491 1487 1488 1488 1485 1480 1479 1476 1478 1473 1474 1470 1473 1473 1468 1468 1466 1465 1460 1459 1457 1457 1449 1449 1446 1441 1440 1441 1434 1434 1433 1431 1430 1428 1425 1427 1430 1434 1435 1436 1435 1436 1435
1486 1484 1483 1480 1482 1482 1476 1474 1473 1474 1473 1471 1470 1470 1468 1465 1464 1462 1461 1458 1456 1456 1457 1454 1449 1450 1441 1438 1440 1436 1426 1425 1426 1426 1425 1426 1425 1433 1434 1435 1436 1436 1435 1435 1436